Weather History for Paganella, Italy

Change the Weather History Date:

Friday, May 9, 2014

  Actual Average Record
Temperature  
Mean Temperature 43 °F -  
Max Temperature 49 °F 46 °F 55 °F (2003)
Min Temperature 37 °F 35 °F 26 °F (2004)
Degree Days  
Heating Degree Days 22    
Moisture  
Dew Point 37 °F    
Average Humidity 76    
Maximum Humidity 100    
Minimum Humidity 41    
Precipitation  
Precipitation 0.00 in 0.10 in - ()
Sea Level Pressure  
Sea Level Pressure 30.09 in    
Wind  
Wind Speed 5 mph ()    
Max Wind Speed 12 mph    
Max Gust Speed -    
Visibility 3.9 miles    
Events Fog    
Averages and records for this station are not official NWS values.
T = Trace of Precipitation, MM = Missing Value Source: Averaged Metar Reports

Daily Weather History Graph

Daily Weather History Graph

Search for Another Location

Airport:

Trip Planner

Search our weather history database for the weather conditions in past years. The results will help you decide how hot, cold, wet, or windy it might be!

Date:

Astronomy

May. 09, 2014 Rise Set
Actual Time 5:51 AM CEST 8:34 PM CEST
Civil Twilight 5:16 AM CEST 9:08 PM CEST
Nautical Twilight 4:33 AM CEST 9:52 PM CEST
Astronomical Twilight 3:43 AM CEST 10:43 PM CEST
Moon 2:57 PM CEST (5/9) 3:03 AM CEST (5/9)
Length of Visible Light 15h 51m
Length of Day
14h 42m
Waxing Gibbous, 71% of the Moon is Illuminated
May 9
Waxing Gibbous
May 14
Full
May 21
Last Quarter
May 28
New
Jun 5
First Quarter

Hourly Weather History & Observations

Time (CEST) Temp. Windchill Dew Point Humidity Pressure Visibility Wind Dir Wind Speed Gust Speed Precip Events Conditions
12:00 AM 38 °F - 35 °F 84%  in 1 mi SSW 4.6 mph - - Fog Partial Fog
12:55 AM 37.4 °F 32.1 °F 35.6 °F 93% 30.12 in 6.2 mi SW 6.9 mph - N/A   Partly Cloudy
1:00 AM 38 °F - 35 °F 84%  in 0 mi SW 6.9 mph - - Fog Partial Fog
2:00 AM 38 °F - 35 °F 87%  in 0 mi SSW 3.5 mph - - Fog Partial Fog
2:55 AM 39.2 °F 35.9 °F 35.6 °F 87% 30.09 in 6.2 mi North 4.6 mph - N/A   Unknown
3:00 AM 38 °F - 35 °F 84%  in 1 mi North 4.6 mph - - Fog Partial Fog
3:55 AM 37.4 °F 32.8 °F 33.8 °F 87% 30.09 in 6.2 mi North 5.8 mph - N/A   Partly Cloudy
4:00 AM 38 °F - 35 °F 82%  in 1 mi North 5.8 mph - - Fog Partial Fog
4:55 AM 37.4 °F 34.9 °F 35.6 °F 93% 30.06 in 6.2 mi North 3.5 mph - N/A   Partly Cloudy
5:00 AM 38 °F - 35 °F 87%  in 7 mi North 3.5 mph - -   Partly Cloudy
5:55 AM 37.4 °F 32.8 °F 35.6 °F 93% 30.06 in 0.5 mi North 5.8 mph - N/A Fog Fog
6:55 AM 37.4 °F 32.8 °F 35.6 °F 93% 30.06 in 0.6 mi North 5.8 mph - N/A Fog Fog
7:00 AM 38 °F - 35 °F 85%  in 1 mi North 5.8 mph - - Fog Heavy Fog
7:55 AM 37.4 °F 32.1 °F 37.4 °F 100% 30.06 in 0.2 mi North 6.9 mph - N/A Fog Fog
8:00 AM 38 °F - 37 °F 96%  in 0 mi North 6.9 mph - - Fog Partial Fog
8:55 AM 42.8 °F 41.1 °F 32.0 °F 66% 30.09 in 6.2 mi NNE 3.5 mph - N/A   Partly Cloudy
9:00 AM 42 °F - 31 °F 54%  in 31 mi NNE 3.5 mph - -   Scattered Clouds
9:55 AM 44.6 °F - 32.0 °F 61% 30.12 in 6.2 mi Variable 2.3 mph - N/A   Partly Cloudy
10:00 AM 44 °F - 31 °F 49%  in 31 mi 2.3 mph - -   Scattered Clouds
10:55 AM 44.6 °F - 28.4 °F 53% 30.09 in 6.2 mi Calm Calm - N/A   Partly Cloudy
11:00 AM 45 °F - 29 °F 41%  in 22 mi Calm Calm - -   Partly Cloudy
11:55 AM 44.6 °F 42.2 °F 37.4 °F 76% 30.12 in 6.2 mi South 4.6 mph - N/A   Partly Cloudy
12:00 PM 45 °F - 38 °F 68%  in 12 mi South 4.6 mph - -   Partly Cloudy
12:55 PM 46.4 °F - 41.0 °F 81% 30.12 in 6.2 mi Calm Calm - N/A   Partly Cloudy
1:00 PM 46 °F - 40 °F 74%  in 25 mi Calm Calm - -   Scattered Clouds
1:55 PM 46.4 °F 43.5 °F 39.2 °F 76% 30.12 in 6.2 mi NNW 5.8 mph - N/A   Partly Cloudy
2:00 PM 47 °F - 39 °F 67%  in 31 mi NNW 5.8 mph - -   Partly Cloudy
2:55 PM 48.2 °F - 39.2 °F 71% 30.12 in 6.2 mi Calm Calm - N/A   Partly Cloudy
3:00 PM 49 °F - 40 °F 61%  in 25 mi Calm Calm - -   Scattered Clouds
3:55 PM 48.2 °F - 39.2 °F 71% 30.09 in 6.2 mi SW 8.1 mph - N/A   Partly Cloudy
4:00 PM 49 °F - 40 °F 62%  in 25 mi SW 8.1 mph - -   Scattered Clouds
4:55 PM 48.2 °F - 41.0 °F 76% 30.09 in 6.2 mi SW 11.5 mph - N/A   Scattered Clouds
5:00 PM 48 °F - 41 °F 70%  in 22 mi SW 11.5 mph - -   Partly Cloudy
5:55 PM 48.2 °F - 41.0 °F 76% 30.09 in 6.2 mi SSW 6.9 mph - N/A   Scattered Clouds
6:00 PM 48 °F - 41 °F 68%  in 12 mi SSW 6.9 mph - -   Partly Cloudy
7:00 PM 46 °F - 40 °F 72%  in 12 mi SSW 9.2 mph - -   Partly Cloudy
7:55 PM 46.4 °F 41.1 °F 41.0 °F 81% 30.06 in 0.5 mi SSW 11.5 mph - N/A Fog Fog
8:00 PM 47 °F - 40 °F 71%  in 0 mi SSW 11.5 mph - - Fog Heavy Fog
8:55 PM 44.6 °F 39.7 °F 39.2 °F 81% 30.09 in 0.5 mi SSW 9.2 mph - N/A Fog Fog
9:00 PM 45 °F - 39 °F 74%  in 0 mi SSW 9.2 mph - - Fog Heavy Fog
9:55 PM 44.6 °F 41.4 °F 39.2 °F 81% 30.09 in 0.6 mi North 5.8 mph - N/A Fog Fog
10:00 PM 44 °F - 39 °F 75%  in 1 mi North 5.8 mph - - Fog Heavy Fog
10:55 PM 44.6 °F - 41.0 °F 87% 30.09 in 0.6 mi Calm Calm - N/A Fog Fog
11:00 PM 45 °F - 40 °F 77%  in 1 mi Calm Calm - - Fog Heavy Fog
11:55 PM 44.6 °F 43.1 °F 33.8 °F 66% 30.09 in 6.2 mi SSW 3.5 mph - N/A   Partly Cloudy